Regional Weather Roundup
Issued by NWS Goodland, KS

Home | Current Version | Previous Version | Graphics & Text | Print | Product List | Glossary On
Versions: 1 2 3 4 5 6 7 8 9 10 11 12 13 14 15 16 17 18 19 20 21 22 23 24 25 26 27 28 29 30 31 32 33 34 35 36 37 38 39 40 41 42 43 44 45 46 47 48 49 50
000
ASUS43 KGLD 012059
RWRGLD

GOODLAND FORECAST AREA HOURLY WEATHER ROUNDUP
NATIONAL WEATHER SERVICE GOODLAND KS
300 PM MDT MON SEP 01 2014

...OFFICIAL OBSERVATIONS...

CITY           SKY/WX    TMP DP  RH WIND       PRES   REMARKS
GOODLAND KS    SUNNY     80  47  31 VRB3      29.97F
HILL CITY KS   SUNNY     81  53  37 N7        29.93F
IMPERIAL NEB   MOSUNNY   76  47  35 SW6       29.96F
MCCOOK NEB     MOSUNNY   77  51  40 N3        29.94F
AKRON CO       SUNNY     77  39  25 MISG      29.99F
BURLINGTON CO  SUNNY     80  43  26 E3        29.98F
LIMON CO       SUNNY     76  42  29 S8        30.03F
$$

...UNOFFICIAL OBSERVATIONS...

CITY           SKY/WX    TMP DP  RH WIND       PRES   REMARKS
COLBY KS       SUNNY     81  52  36 N6        29.96F
GOVE KS          N/A     81  32  17 CALM        N/A
NORTON KS      MOSUNNY   79  43  27 N5        29.92F
SHARON SPRINGS   N/A     82  51  34 CALM        N/A
WAKEENEY KS      N/A     82  50  32 MISG        N/A
KIT CARSON CO    N/A     81  46  28 N6          N/A
YUMA CO          N/A     77  51  39 CALM        N/A
$$


USA.gov is the U.S. government's official web portal to all federal, state and local government web resources and services.